UPPSALA current weather conditions

sailwx.info

Last reported at 2019-Mar-22 05:58 UTC.
Time now 2019-Mar-22 06:06 UTC

Location: N 59°53' E 017°36'.
View on Google Maps.

See reports from other nearby stations

  
Tides and Currents Weather Stations Pressure Air Temp Water Temp Dewpoint Dewpoint Depression Visibility Wind Speed Wind Dir Waves Ship Positions
date/time (UTC)wind fromknots sea level pressurealtimeterstation pressurevisibilityair tempwater tempwave heightnotes
2019-Mar-22 04:50 310 6 5.4-1.0
2019-Mar-22 04:20 310 5 5.4-1.0
2019-Mar-22 03:50 310 4 5.4-0.0
2019-Mar-22 03:20 290 5 5.4-0.0
2019-Mar-22 02:50 280 5 5.4-0.0
2019-Mar-22 02:20 270 5 5.4-0.0
2019-Mar-22 01:50 290 6 5.4 1.0
2019-Mar-22 01:20 290 6 5.4 2.0
2019-Mar-22 00:50 320 6 5.4 2.0
2019-Mar-22 00:20 350 7 5.4 3.0
2019-Mar-21 23:50 340 9 5.4 4.0
2019-Mar-21 23:20 340 13 5.4 4.0
2019-Mar-21 22:50 330 6 5.4 3.0
2019-Mar-21 22:20 310 6 5.4 4.0
2019-Mar-21 21:50 310 5 5.4 4.0
2019-Mar-21 21:20 300 4 5.4 4.0
2019-Mar-21 20:50 280 5 5.4 4.0
2019-Mar-21 20:20 300 4 5.4 5.0
2019-Mar-21 19:50 5.4 6.0 Light rain showers.
2019-Mar-21 19:20 340 9 5.4 6.0
2019-Mar-21 18:50 360 12 5.4 7.0
2019-Mar-21 18:20 010 6 5.4 7.0 Rain showers.
2019-Mar-21 17:50 5.4 8.0 Rain showers.
2019-Mar-21 17:20 220 1 5.4 9.0
2019-Mar-21 16:50 240 5 5.410.0
2019-Mar-21 16:20 240 5 5.410.0
2019-Mar-21 15:50 240 6 5.411.0
2019-Mar-21 15:20 260 8 5.411.0
2019-Mar-21 14:50 270 8 5.411.0
2019-Mar-21 14:20 260 12 5.411.0
2019-Mar-21 13:50 260 11 5.410.0
2019-Mar-21 13:20 250 9 5.410.0
2019-Mar-21 12:50 250 13 5.4 9.0
2019-Mar-21 12:20 250 13 5.4 9.0
2019-Mar-21 11:50 250 13 5.4 9.0
2019-Mar-21 11:20 260 13 5.4 9.0
2019-Mar-21 10:50 260 13 5.4 8.0
2019-Mar-21 10:20 260 11 5.4 8.0
2019-Mar-21 09:50 250 9 5.4 7.0
2019-Mar-21 09:20 230 8 4.3 7.0 Mist.
2019-Mar-21 08:50 220 8 4.3 6.0 Mist.
2019-Mar-21 08:20 230 8 5.4 6.0
2019-Mar-21 07:50 230 11 5.4 5.0
2019-Mar-21 07:20 220 13 5.4 5.0 Light drizzle.
2019-Mar-21 06:50 220 9 5.4 4.0 Drizzle.
2019-Mar-21 06:20 220 7 5.4 4.0 Drizzle.
2019-Mar-21 05:50 220 8 5.4 4.0 Drizzle.
2019-Mar-21 05:20 230 8 5.4 4.0
2019-Mar-21 04:50 220 7 5.4 3.0
2019-Mar-21 04:20 220 8 5.4 3.0
2019-Mar-21 03:50 220 8 5.4 3.0
2019-Mar-21 03:20 220 9 5.4 3.0
2019-Mar-21 02:50 220 9 5.4 3.0
2019-Mar-21 02:20 160 2 5.4 3.0
2019-Mar-21 01:50 220 2 5.4 3.0
2019-Mar-21 01:20 230 6 5.4 4.0
2019-Mar-21 00:50 5.4 4.0
2019-Mar-21 00:20 5.4 4.0
2019-Mar-20 23:50 5.4 4.0
2019-Mar-20 23:20 270 2 5.4 4.0
2019-Mar-20 22:50 5.4 4.0
2019-Mar-20 22:20 260 2 5.4 4.0
2019-Mar-20 21:50 260 6 5.4 4.0
2019-Mar-20 21:20 250 6 5.4 5.0
2019-Mar-20 20:50 250 6 5.4 5.0
2019-Mar-20 20:20 250 4 5.4 4.0
2019-Mar-20 19:50 270 5 5.4 5.0
2019-Mar-20 19:20 270 5 5.4 5.0
2019-Mar-20 18:50 280 6 5.4 6.0
2019-Mar-20 18:20 250 5 5.4 6.0
2019-Mar-20 17:50 270 6 5.4 6.0
2019-Mar-20 17:20 270 6 5.4 7.0
2019-Mar-20 16:50 290 6 5.4 8.0
2019-Mar-20 16:20 290 6 5.4 9.0
2019-Mar-20 15:50 290 7 5.410.0
2019-Mar-20 15:20 280 9 5.410.0
2019-Mar-20 14:50 280 8 5.410.0
2019-Mar-20 14:20 260 7 5.4 9.0
2019-Mar-20 13:50 260 11 5.4 9.0
2019-Mar-20 13:20 260 12 5.4 8.0
2019-Mar-20 12:50 280 11 5.4 7.0
2019-Mar-20 12:20 270 9 5.4 7.0
2019-Mar-20 11:50 260 12 5.4 6.0
2019-Mar-20 11:20 250 13 5.4 5.0
2019-Mar-20 10:50 250 11 5.4 5.0
2019-Mar-20 10:20 250 11 5.4 4.0
2019-Mar-20 09:50 250 9 5.4 3.0
2019-Mar-20 09:20 240 7 3.8 3.0 Mist.
2019-Mar-20 08:50 240 8 2.1 2.0 Mist.
2019-Mar-20 08:20 240 9 5.4 2.0
2019-Mar-20 07:50 220 11 5.4 2.0
2019-Mar-20 07:20 210 12 5.4 1.0 Light snow.
2019-Mar-20 06:50 200 12 5.4 1.0 Light snow.
2019-Mar-20 06:20 200 11 2.7 1.0 Light snow.